Starlink 4208

operational
NORAD ID: 52844 Int'l Des: 2022-062 Owner: SPXS Country: US Constellation: starlink
LEOCIRCULAR

关于 Starlink 4208

正在加载描述...

实时位置

正在加载3D地球...

即将过境

高度历史

Altitude vs Time

uPlot chart will show altitude changes over time

两行轨道根数

1 52844U 22062Q 25258.26543598 .00000246 00000-0 33537-4 0 9996
2 52844 53.2172 101.6332 0001351 85.8891 274.2256 15.08838979179306
Epoch: Sep 15, 2025 • Age: 17 hours

当前状态

高度 552.0 km
速度 7.59 km/s
星下点 -36.09°S, 32.93°W
发射日期 Jun 17, 2022
运行时间 3.2 years
类型 internet

技术详情

分类 Payload
质量 297.00 kg
干质量 275.00 kg
总质量 297.00 kg
长度 0.20 m
直径 2.80 m
跨度 9.00 m
形状 Box + pan
制造商 SPXS
平台类型 Starlink
阶段状态 In Orbit
所有者/国家 SPXS/US

大型星座

Loading constellations...